FW8647 Weather Reports


time (UTC)temp
F
wind
direction
speed
knots
gust
knots
rain 1hr
in
rain 24hr
in
rain mn
in
humidity
%
barometer
mb
20260507205810 45 231 4.3 7.0 0.00 0.00 0.00 75 1013.9
20260507204810 46 217 4.3 6.1 0.00 0.00 0.00 77 1013.7
20260507203805 46 206 4.3 6.1 0.00 0.00 0.00 72 1013.7
20260507202805 49 207 3.5 4.3 0.00 0.00 0.00 62 1013.5
20260507201801 49 242 2.6 4.3 0.00 0.00 0.00 54 1013.5
20260507200801 49 236 3.5 4.3 0.00 0.00 0.00 55 1013.4
20260507195759 49 201 2.6 5.2 0.00 0.00 0.00 55 1013.5
20260507194754 49 224 0.0 0.0 0.00 0.00 0.00 52 1013.5
20260507193752 50 248 5.2 7.0 0.00 0.00 0.00 49 1013.5
20260507192751 50 253 3.5 5.2 0.00 0.00 0.00 49 1013.5
20260507191750 50 287 0.9 1.7 0.00 0.00 0.00 48 1013.5
20260507190749 51 174 2.6 5.2 0.00 0.00 0.00 48 1013.6
20260507185746 51 301 2.6 5.2 0.00 0.00 0.00 47 1013.6
20260507184746 51 217 2.6 5.2 0.00 0.00 0.00 47 1013.7
20260507183746 51 301 3.5 7.8 0.00 0.00 0.00 47 1013.6
20260507182741 51 281 3.5 5.2 0.00 0.00 0.00 48 1013.8
20260507181739 50 199 2.6 5.2 0.00 0.00 0.00 46 1013.7
20260507180737 51 306 5.2 7.0 0.00 0.00 0.00 48 1013.7
20260507175736 51 251 5.2 7.8 0.00 0.00 0.00 51 1013.9
20260507174736 50 229 0.9 2.6 0.00 0.00 0.00 51 1013.9
20260507173732 50 258 0.9 1.7 0.00 0.00 0.00 52 1014.1
20260507172731 50 272 3.5 5.2 0.00 0.00 0.00 51 1014.2
20260507171728 49 262 1.7 2.6 0.00 0.00 0.00 52 1014.4
20260507170728 49 243 1.7 2.6 0.00 0.00 0.00 54 1014.5
20260507165726 49 338 4.3 6.1 0.00 0.00 0.00 54 1014.2
20260507164725 49 234 1.7 2.6 0.00 0.00 0.00 53 1014.6
20260507163725 49 201 0.0 0.0 0.00 0.00 0.00 53 1014.5
20260507162724 49 311 0.0 1.7 0.00 0.00 0.00 54 1014.6
20260507161723 48 175 0.0 0.9 0.00 0.00 0.00 55 1014.7
20260507160720 49 223 1.7 4.3 0.00 0.00 0.00 56 1014.7
20260507155719 49 245 1.7 2.6 0.00 0.00 0.00 53 1014.6
20260507154718 49 208 0.0 0.0 0.00 0.00 0.00 57 1014.9
20260507153717 48 213 2.6 5.2 0.00 0.00 0.00 58 1014.9
20260507152717 49 244 0.9 1.7 0.00 0.00 0.00 57 1014.9
20260507151714 48 228 0.0 0.0 0.00 0.00 0.00 56 1014.9
20260507150714 48 200 0.0 0.0 0.00 0.00 0.00 56 1014.9
20260507145712 48 207 0.0 0.9 0.00 0.00 0.00 59 1014.9
20260507144711 47 210 0.0 0.0 0.00 0.00 0.00 60 1015.1
20260507143706 46 307 0.0 0.0 0.00 0.00 0.00 65 1014.8
20260507142704 46 29 0.0 0.0 0.00 0.00 0.00 64 1015.0
20260507141703 46 195 0.9 0.9 0.00 0.00 0.00 64 1014.9
20260507140702 46 340 0.0 0.0 0.00 0.00 0.00 66 1015.2
20260507135657 45 350 0.0 0.0 0.00 0.00 0.00 68 1015.3
20260507134656 46 320 2.6 4.3 0.00 0.00 0.00 68 1015.4
20260507133654 44 297 0.0 0.0 0.00 0.00 0.00 71 1015.3
20260507132655 44 248 0.9 0.9 0.00 0.00 0.00 71 1015.4
20260507131653 44 260 0.0 0.0 0.00 0.00 0.00 72 1015.4
20260507130653 43 195 0.0 0.0 0.00 0.00 0.00 73 1015.4
20260507125650 43 182 0.0 0.0 0.00 0.00 0.00 73 1015.3
20260507124649 44 192 0.0 0.0 0.00 0.00 0.00 74 1015.5
20260507123645 43 177 0.0 0.0 0.00 0.00 0.00 73 1015.5
20260507122643 42 178 0.0 0.0 0.00 0.00 0.00 74 1015.3
20260507121641 42 183 0.0 0.0 0.00 0.00 0.00 75 1015.5
20260507120639 41 186 0.0 0.0 0.00 0.00 0.00 76 1015.6
20260507115638 41 189 0.0 0.0 0.00 0.00 0.00 76 1015.3
20260507114636 40 152 0.0 0.0 0.00 0.00 0.00 76 1015.3
20260507113631 39 187 0.0 0.0 0.00 0.00 0.00 78 1015.4
20260507112631 38 186 0.0 0.0 0.00 0.00 0.00 80 1015.4
20260507111631 37 182 0.0 0.0 0.00 0.00 0.00 80 1015.3
20260507110629 37 194 0.0 0.0 0.00 0.00 0.00 80 1014.9
20260507105629 37 187 0.0 0.0 0.00 0.00 0.00 81 1014.9
20260507104628 37 186 0.0 0.0 0.00 0.00 0.00 81 1015.0
20260507103626 37 191 0.0 0.0 0.00 0.00 0.00 81 1015.1
20260507102626 37 195 0.0 0.0 0.00 0.00 0.00 81 1014.9
20260507101624 36 201 0.0 0.0 0.00 0.00 0.00 80 1015.0
20260507100623 36 201 0.0 0.0 0.00 0.00 0.00 80 1015.3
20260507095619 37 201 0.0 0.0 0.00 0.00 0.00 79 1015.2
20260507094617 37 201 0.0 0.0 0.00 0.00 0.00 78 1015.0
20260507093612 37 201 0.0 0.0 0.00 0.00 0.00 78 1015.2
20260507092612 37 201 0.0 0.0 0.00 0.00 0.00 77 1015.2
20260507091612 37 201 0.0 0.0 0.00 0.00 0.00 77 1015.3
20260507090609 37 201 0.0 0.0 0.00 0.00 0.00 76 1015.4
20260507085609 38 201 0.0 0.0 0.00 0.00 0.00 76 1015.7
20260507084609 38 201 0.0 0.9 0.00 0.00 0.00 75 1015.3
20260507083608 38 202 0.0 0.0 0.00 0.00 0.00 75 1015.7
20260507082607 38 201 0.0 0.0 0.00 0.00 0.00 76 1015.7
20260507081606 38 205 0.0 0.0 0.00 0.00 0.00 75 1015.7
20260507080605 39 213 4.3 5.2 0.00 0.00 0.00 73 1015.6
20260507075602 40 209 0.0 0.0 0.00 0.00 0.00 73 1015.6
20260507074602 40 185 0.0 0.0 0.00 0.00 0.00 73 1015.5
20260507073602 40 206 0.0 0.0 0.00 0.00 0.00 74 1015.5
20260507072601 41 236 1.7 2.6 0.00 0.00 0.00 75 1015.4
20260507071601 41 237 0.0 0.0 0.00 0.00 0.00 73 1015.3
20260507070600 41 226 0.0 0.0 0.00 0.00 0.00 74 1015.3
20260507065559 41 322 0.9 0.9 0.00 0.00 0.00 74 1015.5
20260507064554 41 306 0.0 0.0 0.00 0.00 0.00 73 1015.3
20260507063549 41 291 0.0 0.0 0.00 0.00 0.00 72 1015.3
20260507062549 42 298 0.0 0.0 0.00 0.00 0.00 71 1015.4
20260507061544 42 226 0.0 0.0 0.00 0.00 0.00 70 1015.4
20260507060540 42 197 0.0 0.0 0.00 0.00 0.00 70 1015.5
20260507055536 42 192 0.0 0.0 0.00 0.00 0.00 67 1015.6
20260507054535 42 182 0.0 0.0 0.00 0.00 0.00 65 1015.6
20260507053530 42 198 0.0 0.0 0.00 0.00 0.00 65 1015.9
20260507052526 42 174 0.0 0.0 0.00 0.00 0.00 65 1016.2
20260507051526 42 184 0.0 0.0 0.00 0.00 0.00 63 1015.8
20260507050524 43 145 0.0 0.0 0.00 0.00 0.00 61 1016.3
20260507045523 43 202 0.0 0.0 0.00 0.00 0.00 62 1015.7
20260507044523 43 192 0.0 0.0 0.00 0.00 0.00 63 1016.0
20260507043522 43 202 0.0 0.0 0.00 0.00 0.00 61 1015.8
20260507042521 43 205 0.0 0.0 0.00 0.00 0.00 59 1016.0
20260507041520 43 197 0.0 0.0 0.00 0.00 0.00 59 1016.2
20260507040519 43 198 0.0 0.0 0.00 0.00 0.00 59 1016.2
20260507035517 43 191 0.0 0.0 0.00 0.14 0.14 58 1015.9
20260507034516 43 195 0.0 0.0 0.00 0.14 0.14 58 1016.0
20260507033512 43 191 0.0 0.0 0.00 0.14 0.14 58 1016.4
20260507032512 43 201 0.0 0.0 0.00 0.14 0.14 57 1016.2
20260507031510 44 208 0.0 0.0 0.00 0.14 0.14 56 1016.3
20260507030510 44 199 0.0 0.0 0.00 0.14 0.14 55 1016.0
20260507025510 44 194 0.0 0.0 0.00 0.14 0.14 54 1016.0
20260507024506 44 198 0.0 0.0 0.00 0.14 0.14 54 1016.0
20260507023504 44 216 0.0 0.0 0.00 0.14 0.14 52 1016.0
20260507022504 44 192 0.0 0.0 0.00 0.14 0.14 51 1015.8
20260507021501 44 215 0.0 0.0 0.00 0.14 0.14 51 1015.9
20260507020501 45 236 0.0 0.0 0.00 0.14 0.14 51 1016.2
20260507015457 44 197 0.0 0.0 0.00 0.14 0.14 51 1015.9
20260507014456 44 252 0.0 0.0 0.00 0.14 0.14 52 1015.8
20260507013454 44 255 0.0 0.0 0.00 0.14 0.14 52 1015.9
20260507012454 44 208 0.0 0.0 0.00 0.14 0.14 53 1016.0
20260507011454 44 208 0.0 0.0 0.00 0.14 0.14 52 1015.9
20260507010450 44 213 0.0 0.0 0.00 0.14 0.14 53 1016.2
20260507005450 44 249 0.0 0.0 0.00 0.14 0.14 53 1015.9
20260507004449 45 315 0.0 0.0 0.00 0.14 0.14 52 1015.8
20260507003448 45 313 0.0 0.0 0.00 0.14 0.14 51 1016.0
20260507002446 46 331 0.0 0.9 0.00 0.14 0.14 50 1015.5
20260507001445 46 327 0.9 1.7 0.00 0.14 0.14 49 1015.5
20260507000444 46 344 2.6 4.3 0.00 0.14 0.14 47 1015.2
20260506235444 46 343 2.6 4.3 0.00 0.14 0.14 47 1015.5
20260506234443 46 312 4.3 6.1 0.00 0.14 0.14 46 1015.3
20260506233442 47 333 1.7 2.6 0.00 0.14 0.14 46 1015.4
20260506232441 47 356 3.5 7.8 0.00 0.14 0.14 46 1015.4
20260506231441 47 330 5.2 8.7 0.00 0.14 0.14 45 1015.6
20260506230440 47 329 0.0 0.9 0.00 0.14 0.14 45 1015.3
20260506225440 47 340 6.1 8.7 0.00 0.14 0.14 44 1015.2
20260506224440 47 308 5.2 7.8 0.00 0.14 0.14 45 1015.4
20260506223437 47 327 4.3 6.1 0.00 0.14 0.14 45 1015.2
20260506222437 47 281 5.2 8.7 0.00 0.14 0.14 45 1015.6
20260506221437 48 310 5.2 7.0 0.00 0.14 0.14 45 1015.3
20260506220436 47 341 5.2 7.8 0.00 0.14 0.14 45 1015.0
20260506215435 47 326 4.3 5.2 0.00 0.14 0.14 48 1015.0
20260506214434 48 290 3.5 7.0 0.00 0.14 0.14 49 1014.8
20260506213429 48 321 5.2 7.8 0.00 0.14 0.14 50 1014.8
20260506212427 48 313 4.3 7.8 0.00 0.14 0.14 50 1014.6
20260506211423 47 4 3.5 6.1 0.00 0.14 0.14 52 1014.7